CLUSTER II-FM7 (SAMBA)

Last updated on Nov. 15, 2019, 4:21 a.m. UTC

1 26410U 00041A   19319.50564317  .00000559  00000-0  00000+0 0  9990
2 26410 131.4642 340.0302 4206636 177.2645   0.6727  0.44215722 21391
UTC
Height (km)
Latitude
Longitude
Inclination
Orbital Period
UTC large
Height (km)
Speed (km/s)
/
Latitude / Longitude
Inclination (degrees)
Orbital Period (minutes)
Azimuth
Elevation
Range (km)
Doppler Factor
iOS Compass Heading
iOS Angle

Next 30 passes for location: Hong Kong

Rise time Rise Azimuth (degrees) Set time Set Azimuth (degrees) Duration Max altitude (degrees)

No matching passes for this satellites